Gainesville, FL

11:06 PM EDT on July 21, 2017 (GMT -0400)
Gainesville Regional

Weather History for KGNV - November, 2014

Change the Weather History Date:

Sunday, November 30, 2014

  Actual Average Record
Temperature  
Mean Temperature 59 °F 59 °F  
Max Temperature 76 °F 71 °F 86 °F (1997)
Min Temperature 42 °F 48 °F 22 °F (1959)
Degree Days  
Heating Degree Days 6 7  
Month to date heating degree days 247 134  
Since 1 July heating degree days 265 161  
Cooling Degree Days 0 1  
Month to date cooling degree days 32 66  
Year to date cooling degree days 2563 2616  
Growing Degree Days 8 (Base 50)    
Moisture  
Dew Point 49 °F    
Average Humidity 72    
Maximum Humidity 100    
Minimum Humidity 43    
Precipitation  
Precipitation 0.00 in 0.08 in 1.46 in (2008)
Month to date precipitation 2.47 2.06  
Year to date precipitation 48.36 44.93  
Snow  
Snow 0.00 in 0.00 in 0.00 in ()
Month to date snowfall 0.0 0.0  
Since 1 July snowfall 0.0 0.0  
Since 1 September snowfall 0.0 0.0  
Snow Depth 0.00 in    
Sea Level Pressure  
Sea Level Pressure 30.32 in    
Wind  
Wind Speed 2 mph (ESE)    
Max Wind Speed 10 mph    
Max Gust Speed 14 mph    
Visibility 9 miles    
Events      
T = Trace of Precipitation, MM = Missing Value Source: NWS Daily Summary

Daily Weather History Graph

Daily Weather History Graph

Search for Another Location

Airport or City:

Trip Planner

Search our weather history database for the weather conditions in past years. The results will help you decide how hot, cold, wet, or windy it might be!

Date:

Astronomy

Nov. 30, 2014 Rise Set
Actual Time 7:05 AM EST 5:29 PM EST
Civil Twilight 6:39 AM EST 5:55 PM EST
Nautical Twilight 6:10 AM EST 6:24 PM EST
Astronomical Twilight 5:41 AM EST 6:53 PM EST
Moon 1:34 PM EST (11/30) 1:02 AM EST (11/30)
Length of Visible Light 11h 15m
Length of Day
10h 23m
Waxing Gibbous, 64% of the Moon is Illuminated
Nov 30
Waxing Gibbous
Dec 6
Full
Dec 14
Last Quarter
Dec 21
New
Dec 28
First Quarter

Hourly Weather History & Observations

Time (EST) Temp. Dew Point Humidity Pressure Visibility Wind Dir Wind Speed Gust Speed Precip Events Conditions
12:53 AM 45.0 °F 45.0 °F 100% 30.29 in 10.0 mi Calm Calm - N/A   Clear
1:32 AM 46.0 °F 45.0 °F 96% 30.29 in 10.0 mi Calm Calm - N/A   Scattered Clouds
1:43 AM 44.1 °F 44.1 °F 100% 30.29 in 10.0 mi Calm Calm - N/A   Mostly Cloudy
1:53 AM 43.0 °F 43.0 °F 100% 30.30 in 10.0 mi Calm Calm - N/A   Overcast
2:53 AM 43.0 °F 42.1 °F 97% 30.30 in 4.0 mi Calm Calm - N/A   Overcast
3:53 AM 43.0 °F 43.0 °F 100% 30.30 in 10.0 mi Calm Calm - N/A   Overcast
4:14 AM 42.1 °F 42.1 °F 100% 30.29 in 10.0 mi Calm Calm - N/A   Scattered Clouds
4:24 AM 42.1 °F 42.1 °F 100% 30.29 in 10.0 mi Calm Calm - N/A   Mostly Cloudy
4:38 AM 42.1 °F 42.1 °F 100% 30.29 in 10.0 mi Calm Calm - N/A   Scattered Clouds
4:53 AM 42.1 °F 42.1 °F 100% 30.30 in 10.0 mi Calm Calm - N/A   Partly Cloudy
5:32 AM 43.0 °F 41.0 °F 93% 30.30 in 10.0 mi Calm Calm - N/A   Mostly Cloudy
5:53 AM 42.1 °F 41.0 °F 96% 30.32 in 10.0 mi Calm Calm - N/A   Overcast
6:24 AM 42.1 °F 41.0 °F 96% 30.32 in 10.0 mi Calm Calm - N/A   Scattered Clouds
6:53 AM 43.0 °F 41.0 °F 93% 30.33 in 10.0 mi Calm Calm - N/A   Clear
7:53 AM 46.9 °F 46.0 °F 97% 30.35 in 10.0 mi Calm Calm - N/A   Clear
8:53 AM 57.0 °F 55.0 °F 93% 30.36 in 10.0 mi East 3.5 mph - N/A   Clear
9:53 AM 64.0 °F 55.9 °F 75% 30.37 in 10.0 mi ESE 5.8 mph - N/A   Clear
10:53 AM 69.1 °F 55.0 °F 61% 30.36 in 10.0 mi SE 8.1 mph - N/A   Clear
11:53 AM 73.0 °F 55.9 °F 55% 30.35 in 10.0 mi SE 4.6 mph - N/A   Clear
12:53 PM 73.9 °F 55.0 °F 52% 30.32 in 10.0 mi ESE 9.2 mph - N/A   Clear
1:53 PM 73.9 °F 53.1 °F 48% 30.30 in 10.0 mi SE 6.9 mph - N/A   Partly Cloudy
2:53 PM 75.0 °F 52.0 °F 44% 30.29 in 10.0 mi SE 4.6 mph - N/A   Clear
3:53 PM 73.9 °F 53.1 °F 48% 30.28 in 10.0 mi SE 5.8 mph - N/A   Clear
4:53 PM 72.0 °F 54.0 °F 53% 30.29 in 10.0 mi SE 3.5 mph - N/A   Clear
5:53 PM 63.0 °F 55.0 °F 75% 30.30 in 10.0 mi East 3.5 mph - N/A   Clear
6:53 PM 60.1 °F 55.0 °F 83% 30.31 in 10.0 mi Calm Calm - N/A   Clear
7:53 PM 59.0 °F 55.0 °F 87% 30.32 in 10.0 mi Calm Calm - N/A   Clear
8:53 PM 55.0 °F 54.0 °F 96% 30.33 in 10.0 mi Calm Calm - N/A   Clear
9:53 PM 55.0 °F 54.0 °F 96% 30.33 in 10.0 mi Calm Calm - N/A   Clear
10:53 PM 53.1 °F 53.1 °F 100% 30.34 in 5.0 mi Calm Calm - N/A   Clear
11:00 PM 54.0 °F 54.0 °F 100% 30.34 in 1.5 mi Calm Calm - N/A   Clear
11:12 PM 52.0 °F 52.0 °F 100% 30.34 in 3.0 mi Calm Calm - N/A   Clear
11:53 PM 53.1 °F 52.0 °F 96% 30.33 in 10.0 mi Calm Calm - N/A   Clear